owner,sensor,date,latitude,longitude,vertical_datum,mass_concentration_of_oxygen_in_sea_water,qcFlag 
DISL,ioos:station:DISL:DISL:1,2011-09-01T00:00:00Z,30.2513,-88.0778,6.612,5.47,1111122 
DISL,ioos:station:DISL:DISL:1,2011-09-01T00:30:00Z,30.2513,-88.0778,6.809,5.62,1111122 
DISL,ioos:station:DISL:DISL:1,2011-09-01T01:00:00Z,30.2513,-88.0778,6.809,5.66,1111122 
DISL,ioos:station:DISL:DISL:1,2011-09-01T01:30:00Z,30.2513,-88.0778,7.02,5.32,1111122 
DISL,ioos:station:DISL:DISL:1,2011-09-01T02:00:00Z,30.2513,-88.0778,7.04,5.14,1111122 
DISL,ioos:station:DISL:DISL:1,2011-09-01T02:30:00Z,30.2513,-88.0778,6.964,5.28,1111122 
DISL,ioos:station:DISL:DISL:1,2011-09-01T03:00:00Z,30.2513,-88.0778,7.16,5.3,1111122 
DISL,ioos:station:DISL:DISL:1,2011-09-01T03:30:00Z,30.2513,-88.0778,7.23,5.07,1111122 
DISL,ioos:station:DISL:DISL:1,2011-09-01T04:00:00Z,30.2513,-88.0778,7.13,4.74,1111122 
DISL,ioos:station:DISL:DISL:1,2011-09-01T04:30:00Z,30.2513,-88.0778,7.23,5.01,1111122 
DISL,ioos:station:DISL:DISL:1,2011-09-01T05:00:00Z,30.2513,-88.0778,7.24,5.14,1111122 
DISL,ioos:station:DISL:DISL:1,2011-09-01T05:30:00Z,30.2513,-88.0778,7.27,4.74,1111122 
DISL,ioos:station:DISL:DISL:1,2011-09-01T06:00:00Z,30.2513,-88.0778,7.26,4.76,1111122 
DISL,ioos:station:DISL:DISL:1,2011-09-01T06:30:00Z,30.2513,-88.0778,7.28,4.65,1111122 
DISL,ioos:station:DISL:DISL:1,2011-09-01T07:00:00Z,30.2513,-88.0778,7.22,4.58,1111122 
DISL,ioos:station:DISL:DISL:1,2011-09-01T07:30:00Z,30.2513,-88.0778,7.36,4.58,1111122 
DISL,ioos:station:DISL:DISL:1,2011-09-01T08:00:00Z,30.2513,-88.0778,7.34,4.95,1111122 
DISL,ioos:station:DISL:DISL:1,2011-09-01T08:30:00Z,30.2513,-88.0778,7.36,4.9,1111122 
DISL,ioos:station:DISL:DISL:1,2011-09-01T09:00:00Z,30.2513,-88.0778,7.32,5.01,1111122 
DISL,ioos:station:DISL:DISL:1,2011-09-01T09:30:00Z,30.2513,-88.0778,7.23,4.93,1111122 
DISL,ioos:station:DISL:DISL:1,2011-09-01T10:00:00Z,30.2513,-88.0778,7.26,4.98,1111122 
DISL,ioos:station:DISL:DISL:1,2011-09-01T10:30:00Z,30.2513,-88.0778,7.05,4.96,1111122 
DISL,ioos:station:DISL:DISL:1,2011-09-01T11:00:00Z,30.2513,-88.0778,7.32,4.43,1111122 
DISL,ioos:station:DISL:DISL:1,2011-09-01T11:30:00Z,30.2513,-88.0778,6.987,4.09,1111122 
DISL,ioos:station:DISL:DISL:1,2011-09-01T12:00:00Z,30.2513,-88.0778,7.15,4.14,1111122 
DISL,ioos:station:DISL:DISL:1,2011-09-01T12:30:00Z,30.2513,-88.0778,6.759,4.12,1111122 
DISL,ioos:station:DISL:DISL:1,2011-09-01T13:00:00Z,30.2513,-88.0778,6.715,4.18,1111122 
DISL,ioos:station:DISL:DISL:1,2011-09-01T13:30:00Z,30.2513,-88.0778,6.612,4.28,1111122 
DISL,ioos:station:DISL:DISL:1,2011-09-01T14:00:00Z,30.2513,-88.0778,6.786,4.34,1111122 
DISL,ioos:station:DISL:DISL:1,2011-09-01T14:30:00Z,30.2513,-88.0778,6.673,4.16,1111122 
DISL,ioos:station:DISL:DISL:1,2011-09-01T15:00:00Z,30.2513,-88.0778,6.817,4.2,1111122 
DISL,ioos:station:DISL:DISL:1,2011-09-01T15:30:00Z,30.2513,-88.0778,6.879,4.28,1111122 
DISL,ioos:station:DISL:DISL:1,2011-09-01T16:00:00Z,30.2513,-88.0778,6.701,4.49,1111122 
DISL,ioos:station:DISL:DISL:1,2011-09-01T16:30:00Z,30.2513,-88.0778,6.478,4.67,1111122 
DISL,ioos:station:DISL:DISL:1,2011-09-01T17:00:00Z,30.2513,-88.0778,6.729,4.83,1111122 
DISL,ioos:station:DISL:DISL:1,2011-09-01T17:30:00Z,30.2513,-88.0778,6.633,5.11,1111122 
DISL,ioos:station:DISL:DISL:1,2011-09-01T18:00:00Z,30.2513,-88.0778,6.639,5.15,1111122 
DISL,ioos:station:DISL:DISL:1,2011-09-01T18:30:00Z,30.2513,-88.0778,6.721,5.24,1111122 
DISL,ioos:station:DISL:DISL:1,2011-09-01T19:00:00Z,30.2513,-88.0778,6.675,5.12,1111122 
DISL,ioos:station:DISL:DISL:1,2011-09-01T19:30:00Z,30.2513,-88.0778,6.743,5.4,1111122 
DISL,ioos:station:DISL:DISL:1,2011-09-01T20:00:00Z,30.2513,-88.0778,6.674,5.59,1111122 
DISL,ioos:station:DISL:DISL:1,2011-09-01T20:30:00Z,30.2513,-88.0778,6.709,5.45,1111122 
DISL,ioos:station:DISL:DISL:1,2011-09-01T21:00:00Z,30.2513,-88.0778,6.675,5.35,1111122 
DISL,ioos:station:DISL:DISL:1,2011-09-01T21:30:00Z,30.2513,-88.0778,6.74,5.21,1111122 
DISL,ioos:station:DISL:DISL:1,2011-09-01T22:00:00Z,30.2513,-88.0778,6.752,5.33,1111122 
DISL,ioos:station:DISL:DISL:1,2011-09-01T22:30:00Z,30.2513,-88.0778,6.791,5.62,1111122 
DISL,ioos:station:DISL:DISL:1,2011-09-01T23:00:00Z,30.2513,-88.0778,6.78,5.7,1111122 
DISL,ioos:station:DISL:DISL:1,2011-09-01T23:30:00Z,30.2513,-88.0778,6.767,5.67,1111122 
DISL,ioos:station:DISL:DISL:1,2011-09-02T00:00:00Z,30.2513,-88.0778,6.959,5.33,1111122 
DISL,ioos:station:DISL:DISL:1,2011-09-02T00:30:00Z,30.2513,-88.0778,7.28,5.41,1111122 
DISL,ioos:station:DISL:DISL:1,2011-09-02T01:00:00Z,30.2513,-88.0778,7.14,5.6,1111122 
DISL,ioos:station:DISL:DISL:1,2011-09-02T01:30:00Z,30.2513,-88.0778,7.1,5.56,1111122 
DISL,ioos:station:DISL:DISL:1,2011-09-02T02:00:00Z,30.2513,-88.0778,7.24,5.53,1111122 
DISL,ioos:station:DISL:DISL:1,2011-09-02T02:30:00Z,30.2513,-88.0778,7.36,5.53,1111122 
DISL,ioos:station:DISL:DISL:1,2011-09-02T03:00:00Z,30.2513,-88.0778,7.41,5.3,1111122 
DISL,ioos:station:DISL:DISL:1,2011-09-02T03:30:00Z,30.2513,-88.0778,7.61,4.98,1111122 
DISL,ioos:station:DISL:DISL:1,2011-09-02T04:00:00Z,30.2513,-88.0778,7.4,5.15,1111122 
DISL,ioos:station:DISL:DISL:1,2011-09-02T04:30:00Z,30.2513,-88.0778,7.65,5.15,1111122 
DISL,ioos:station:DISL:DISL:1,2011-09-02T05:00:00Z,30.2513,-88.0778,7.62,4.99,1111122 
DISL,ioos:station:DISL:DISL:1,2011-09-02T05:30:00Z,30.2513,-88.0778,7.83,5.13,1111122 
DISL,ioos:station:DISL:DISL:1,2011-09-02T06:00:00Z,30.2513,-88.0778,7.74,5.09,1111122 
DISL,ioos:station:DISL:DISL:1,2011-09-02T06:30:00Z,30.2513,-88.0778,7.73,5.3,1111122 
DISL,ioos:station:DISL:DISL:1,2011-09-02T07:00:00Z,30.2513,-88.0778,7.72,5.34,1111122 
DISL,ioos:station:DISL:DISL:1,2011-09-02T07:30:00Z,30.2513,-88.0778,7.86,5.42,1111122 
DISL,ioos:station:DISL:DISL:1,2011-09-02T08:00:00Z,30.2513,-88.0778,7.72,5.49,1111122 
DISL,ioos:station:DISL:DISL:1,2011-09-02T08:30:00Z,30.2513,-88.0778,7.79,5.5,1111122 
DISL,ioos:station:DISL:DISL:1,2011-09-02T09:00:00Z,30.2513,-88.0778,7.57,5.55,1111122 
DISL,ioos:station:DISL:DISL:1,2011-09-02T09:30:00Z,30.2513,-88.0778,7.77,5.42,1111122 
DISL,ioos:station:DISL:DISL:1,2011-09-02T10:00:00Z,30.2513,-88.0778,7.53,5.55,1111122 
DISL,ioos:station:DISL:DISL:1,2011-09-02T10:30:00Z,30.2513,-88.0778,7.59,5.65,1111122 
DISL,ioos:station:DISL:DISL:1,2011-09-02T11:00:00Z,30.2513,-88.0778,7.49,5.68,1111122 
DISL,ioos:station:DISL:DISL:1,2011-09-02T11:30:00Z,30.2513,-88.0778,7.53,5.62,1111122 
DISL,ioos:station:DISL:DISL:1,2011-09-02T12:00:00Z,30.2513,-88.0778,7.44,5.62,1111122 
DISL,ioos:station:DISL:DISL:1,2011-09-02T12:30:00Z,30.2513,-88.0778,7.3,5.57,1111122 
DISL,ioos:station:DISL:DISL:1,2011-09-02T13:00:00Z,30.2513,-88.0778,7.29,5.51,1111122 
DISL,ioos:station:DISL:DISL:1,2011-09-02T13:30:00Z,30.2513,-88.0778,7.19,5.28,1111122 
DISL,ioos:station:DISL:DISL:1,2011-09-02T14:00:00Z,30.2513,-88.0778,6.971,5.31,1111122 
DISL,ioos:station:DISL:DISL:1,2011-09-02T14:30:00Z,30.2513,-88.0778,6.787,5.38,1111122 
DISL,ioos:station:DISL:DISL:1,2011-09-02T15:00:00Z,30.2513,-88.0778,6.733,5.55,1111122 
DISL,ioos:station:DISL:DISL:1,2011-09-02T15:30:00Z,30.2513,-88.0778,6.985,5.66,1111122 
DISL,ioos:station:DISL:DISL:1,2011-09-02T16:00:00Z,30.2513,-88.0778,6.816,5.69,1111122 
DISL,ioos:station:DISL:DISL:1,2011-09-02T16:30:00Z,30.2513,-88.0778,6.92,5.78,1111122 
DISL,ioos:station:DISL:DISL:1,2011-09-02T17:00:00Z,30.2513,-88.0778,7.02,5.84,1111122 
DISL,ioos:station:DISL:DISL:1,2011-09-02T17:30:00Z,30.2513,-88.0778,6.967,5.9,1111122 
DISL,ioos:station:DISL:DISL:1,2011-09-02T18:00:00Z,30.2513,-88.0778,6.591,5.78,1111122 
DISL,ioos:station:DISL:DISL:1,2011-09-02T18:30:00Z,30.2513,-88.0778,6.653,5.78,1111122 
DISL,ioos:station:DISL:DISL:1,2011-09-02T19:00:00Z,30.2513,-88.0778,6.671,5.81,1111122 
DISL,ioos:station:DISL:DISL:1,2011-09-02T19:30:00Z,30.2513,-88.0778,6.384,5.83,1111122 
DISL,ioos:station:DISL:DISL:1,2011-09-02T20:00:00Z,30.2513,-88.0778,6.651,5.92,1111122 
DISL,ioos:station:DISL:DISL:1,2011-09-02T20:30:00Z,30.2513,-88.0778,6.79,5.95,1111122 
DISL,ioos:station:DISL:DISL:1,2011-09-02T21:00:00Z,30.2513,-88.0778,6.533,5.93,1111122 
DISL,ioos:station:DISL:DISL:1,2011-09-02T21:30:00Z,30.2513,-88.0778,6.737,5.9,1111122 
DISL,ioos:station:DISL:DISL:1,2011-09-02T22:00:00Z,30.2513,-88.0778,6.858,5.94,1111122 
DISL,ioos:station:DISL:DISL:1,2011-09-02T22:30:00Z,30.2513,-88.0778,6.709,5.96,1111122 
DISL,ioos:station:DISL:DISL:1,2011-09-02T23:00:00Z,30.2513,-88.0778,7.21,5.9,1111122 
DISL,ioos:station:DISL:DISL:1,2011-09-02T23:30:00Z,30.2513,-88.0778,6.873,5.95,1111122 
DISL,ioos:station:DISL:DISL:1,2011-09-03T00:00:00Z,30.2513,-88.0778,6.895,5.86,1111122 
DISL,ioos:station:DISL:DISL:1,2011-09-03T00:30:00Z,30.2513,-88.0778,7.07,5.84,1111122 
DISL,ioos:station:DISL:DISL:1,2011-09-03T01:00:00Z,30.2513,-88.0778,7.07,5.71,1111122 
DISL,ioos:station:DISL:DISL:1,2011-09-03T01:30:00Z,30.2513,-88.0778,7.29,5.77,1111122 
DISL,ioos:station:DISL:DISL:1,2011-09-03T02:00:00Z,30.2513,-88.0778,7.43,5.81,1111122 
DISL,ioos:station:DISL:DISL:1,2011-09-03T02:30:00Z,30.2513,-88.0778,7.54,5.85,1111122 
DISL,ioos:station:DISL:DISL:1,2011-09-03T03:00:00Z,30.2513,-88.0778,7.58,5.8,1111122 
DISL,ioos:station:DISL:DISL:1,2011-09-03T03:30:00Z,30.2513,-88.0778,7.58,5.74,1111122 
DISL,ioos:station:DISL:DISL:1,2011-09-03T04:00:00Z,30.2513,-88.0778,7.88,5.54,1111122 
DISL,ioos:station:DISL:DISL:1,2011-09-03T04:30:00Z,30.2513,-88.0778,7.82,5.5,1111122 
DISL,ioos:station:DISL:DISL:1,2011-09-03T05:00:00Z,30.2513,-88.0778,8.35,5.5,1111122 
DISL,ioos:station:DISL:DISL:1,2011-09-03T05:30:00Z,30.2513,-88.0778,8.2,5.8,1111122 
DISL,ioos:station:DISL:DISL:1,2011-09-03T06:00:00Z,30.2513,-88.0778,8.36,5.64,1111122 
DISL,ioos:station:DISL:DISL:1,2011-09-03T06:30:00Z,30.2513,-88.0778,8.32,5.7,1111122 
DISL,ioos:station:DISL:DISL:1,2011-09-03T07:00:00Z,30.2513,-88.0778,8.31,5.64,1111122 
DISL,ioos:station:DISL:DISL:1,2011-09-03T07:30:00Z,30.2513,-88.0778,8.41,5.61,1111122 
DISL,ioos:station:DISL:DISL:1,2011-09-03T08:00:00Z,30.2513,-88.0778,8.52,5.78,1111122 
DISL,ioos:station:DISL:DISL:1,2011-09-03T08:30:00Z,30.2513,-88.0778,8.47,5.74,1111122 
DISL,ioos:station:DISL:DISL:1,2011-09-03T09:00:00Z,30.2513,-88.0778,8.28,5.71,1111122 
DISL,ioos:station:DISL:DISL:1,2011-09-03T09:30:00Z,30.2513,-88.0778,8.29,5.49,1111122 
DISL,ioos:station:DISL:DISL:1,2011-09-03T10:00:00Z,30.2513,-88.0778,8.51,5.44,1111122 
DISL,ioos:station:DISL:DISL:1,2011-09-03T10:30:00Z,30.2513,-88.0778,8.36,5.64,1111122 
DISL,ioos:station:DISL:DISL:1,2011-09-03T11:00:00Z,30.2513,-88.0778,8.3,5.98,1111122 
DISL,ioos:station:DISL:DISL:1,2011-09-03T11:30:00Z,30.2513,-88.0778,8.43,5.96,1111122 
DISL,ioos:station:DISL:DISL:1,2011-09-03T12:00:00Z,30.2513,-88.0778,8.21,5.92,1111122 
DISL,ioos:station:DISL:DISL:1,2011-09-03T12:30:00Z,30.2513,-88.0778,7.8,5.89,1111122 
DISL,ioos:station:DISL:DISL:1,2011-09-03T13:00:00Z,30.2513,-88.0778,8.01,5.88,1111122 
DISL,ioos:station:DISL:DISL:1,2011-09-03T13:30:00Z,30.2513,-88.0778,7.76,5.92,1111122 
DISL,ioos:station:DISL:DISL:1,2011-09-03T14:00:00Z,30.2513,-88.0778,7.61,6.0,1111122 
DISL,ioos:station:DISL:DISL:1,2011-09-03T14:30:00Z,30.2513,-88.0778,7.84,5.98,1111122 
DISL,ioos:station:DISL:DISL:1,2011-09-03T15:00:00Z,30.2513,-88.0778,7.55,5.98,1111122 
DISL,ioos:station:DISL:DISL:1,2011-09-03T15:30:00Z,30.2513,-88.0778,7.18,5.96,1111122 
DISL,ioos:station:DISL:DISL:1,2011-09-03T16:00:00Z,30.2513,-88.0778,7.26,5.96,1111122 
DISL,ioos:station:DISL:DISL:1,2011-09-03T16:30:00Z,30.2513,-88.0778,7.4,6.03,1111122 
DISL,ioos:station:DISL:DISL:1,2011-09-03T17:00:00Z,30.2513,-88.0778,7.48,6.05,1111122 
DISL,ioos:station:DISL:DISL:1,2011-09-03T17:30:00Z,30.2513,-88.0778,7.71,6.02,1111122 
DISL,ioos:station:DISL:DISL:1,2011-09-03T18:00:00Z,30.2513,-88.0778,7.53,6.11,1111122 
DISL,ioos:station:DISL:DISL:1,2011-09-03T18:30:00Z,30.2513,-88.0778,7.25,6.05,1111122 
DISL,ioos:station:DISL:DISL:1,2011-09-03T19:00:00Z,30.2513,-88.0778,7.21,6.1,1111122 
DISL,ioos:station:DISL:DISL:1,2011-09-03T19:30:00Z,30.2513,-88.0778,7.36,6.21,1111122 
DISL,ioos:station:DISL:DISL:1,2011-09-03T20:00:00Z,30.2513,-88.0778,7.06,6.23,1111122 
DISL,ioos:station:DISL:DISL:1,2011-09-03T20:30:00Z,30.2513,-88.0778,7.25,6.29,1111122 
DISL,ioos:station:DISL:DISL:1,2011-09-03T21:00:00Z,30.2513,-88.0778,7.52,6.33,1111122 
DISL,ioos:station:DISL:DISL:1,2011-09-03T21:30:00Z,30.2513,-88.0778,7.16,6.32,1111122 
DISL,ioos:station:DISL:DISL:1,2011-09-03T22:00:00Z,30.2513,-88.0778,7.64,6.26,1111122 
DISL,ioos:station:DISL:DISL:1,2011-09-03T22:30:00Z,30.2513,-88.0778,7.44,6.17,1111122 
DISL,ioos:station:DISL:DISL:1,2011-09-03T23:00:00Z,30.2513,-88.0778,7.47,6.21,1111122 
DISL,ioos:station:DISL:DISL:1,2011-09-03T23:30:00Z,30.2513,-88.0778,7.6,6.24,1111122 
DISL,ioos:station:DISL:DISL:1,2011-09-04T00:00:00Z,30.2513,-88.0778,7.7,6.27,1111122 
DISL,ioos:station:DISL:DISL:1,2011-09-04T00:30:00Z,30.2513,-88.0778,7.83,6.17,1111122 
DISL,ioos:station:DISL:DISL:1,2011-09-04T01:00:00Z,30.2513,-88.0778,7.7,6.21,1111122 
DISL,ioos:station:DISL:DISL:1,2011-09-04T01:30:00Z,30.2513,-88.0778,8.13,6.27,1111122 
DISL,ioos:station:DISL:DISL:1,2011-09-04T02:00:00Z,30.2513,-88.0778,8.27,6.1,1111122 
DISL,ioos:station:DISL:DISL:1,2011-09-04T02:30:00Z,30.2513,-88.0778,8.08,6.12,1111122 
DISL,ioos:station:DISL:DISL:1,2011-09-04T03:00:00Z,30.2513,-88.0778,8.17,5.97,1111122 
DISL,ioos:station:DISL:DISL:1,2011-09-04T03:30:00Z,30.2513,-88.0778,8.15,5.94,1111122 
DISL,ioos:station:DISL:DISL:1,2011-09-04T04:00:00Z,30.2513,-88.0778,8.33,5.89,1111122 
DISL,ioos:station:DISL:DISL:1,2011-09-04T04:30:00Z,30.2513,-88.0778,8.11,5.93,1111122 
DISL,ioos:station:DISL:DISL:1,2011-09-04T05:00:00Z,30.2513,-88.0778,8.19,5.88,1111122 
DISL,ioos:station:DISL:DISL:1,2011-09-04T05:30:00Z,30.2513,-88.0778,8.53,5.93,1111122 
DISL,ioos:station:DISL:DISL:1,2011-09-04T06:00:00Z,30.2513,-88.0778,8.62,5.87,1111122 
DISL,ioos:station:DISL:DISL:1,2011-09-04T06:30:00Z,30.2513,-88.0778,8.51,5.85,1111122 
DISL,ioos:station:DISL:DISL:1,2011-09-04T07:00:00Z,30.2513,-88.0778,8.48,5.87,1111122 
DISL,ioos:station:DISL:DISL:1,2011-09-04T07:30:00Z,30.2513,-88.0778,8.67,5.75,1111122 
DISL,ioos:station:DISL:DISL:1,2011-09-04T08:00:00Z,30.2513,-88.0778,8.74,5.72,1111122 
DISL,ioos:station:DISL:DISL:1,2011-09-04T08:30:00Z,30.2513,-88.0778,8.73,5.57,1111122 
DISL,ioos:station:DISL:DISL:1,2011-09-04T09:00:00Z,30.2513,-88.0778,8.93,5.75,1111122 
DISL,ioos:station:DISL:DISL:1,2011-09-04T09:30:00Z,30.2513,-88.0778,8.78,5.83,1111122 
DISL,ioos:station:DISL:DISL:1,2011-09-04T10:00:00Z,30.2513,-88.0778,8.69,5.9,1111122 
DISL,ioos:station:DISL:DISL:1,2011-09-04T10:30:00Z,30.2513,-88.0778,8.83,5.76,1111122 
DISL,ioos:station:DISL:DISL:1,2011-09-04T11:00:00Z,30.2513,-88.0778,8.58,5.85,1111122 
DISL,ioos:station:DISL:DISL:1,2011-09-04T11:30:00Z,30.2513,-88.0778,8.51,5.86,1111122 
DISL,ioos:station:DISL:DISL:1,2011-09-04T12:00:00Z,30.2513,-88.0778,8.76,5.79,1111122 
DISL,ioos:station:DISL:DISL:1,2011-09-04T12:30:00Z,30.2513,-88.0778,8.72,5.8,1111122 
DISL,ioos:station:DISL:DISL:1,2011-09-04T13:00:00Z,30.2513,-88.0778,8.45,5.92,1111122 
DISL,ioos:station:DISL:DISL:1,2011-09-04T13:30:00Z,30.2513,-88.0778,8.38,5.87,1111122 
DISL,ioos:station:DISL:DISL:1,2011-09-04T14:00:00Z,30.2513,-88.0778,8.45,6.01,1111122 
DISL,ioos:station:DISL:DISL:1,2011-09-04T14:30:00Z,30.2513,-88.0778,8.18,6.0,1111122 
DISL,ioos:station:DISL:DISL:1,2011-09-04T15:00:00Z,30.2513,-88.0778,8.03,6.02,1111122 
DISL,ioos:station:DISL:DISL:1,2011-09-04T15:30:00Z,30.2513,-88.0778,8.04,6.03,1111122 
DISL,ioos:station:DISL:DISL:1,2011-09-04T16:00:00Z,30.2513,-88.0778,8.11,6.1,1111122 
DISL,ioos:station:DISL:DISL:1,2011-09-04T16:30:00Z,30.2513,-88.0778,7.97,5.88,1111122 
DISL,ioos:station:DISL:DISL:1,2011-09-04T17:00:00Z,30.2513,-88.0778,7.63,5.88,1111122 
DISL,ioos:station:DISL:DISL:1,2011-09-04T17:30:00Z,30.2513,-88.0778,7.47,6.09,1111122 
DISL,ioos:station:DISL:DISL:1,2011-09-04T18:00:00Z,30.2513,-88.0778,7.41,6.18,1111122 
DISL,ioos:station:DISL:DISL:1,2011-09-04T18:30:00Z,30.2513,-88.0778,7.51,6.2,1111122 
DISL,ioos:station:DISL:DISL:1,2011-09-04T19:00:00Z,30.2513,-88.0778,7.4,6.25,1111122 
DISL,ioos:station:DISL:DISL:1,2011-09-04T19:30:00Z,30.2513,-88.0778,7.55,6.33,1111122 
DISL,ioos:station:DISL:DISL:1,2011-09-04T20:00:00Z,30.2513,-88.0778,7.48,6.26,1111122 
DISL,ioos:station:DISL:DISL:1,2011-09-04T20:30:00Z,30.2513,-88.0778,7.45,6.23,1111122 
DISL,ioos:station:DISL:DISL:1,2011-09-04T21:00:00Z,30.2513,-88.0778,7.08,6.23,1111122 
DISL,ioos:station:DISL:DISL:1,2011-09-04T21:30:00Z,30.2513,-88.0778,7.26,6.03,1111122 
DISL,ioos:station:DISL:DISL:1,2011-09-04T22:00:00Z,30.2513,-88.0778,6.601,6.07,1111122 
DISL,ioos:station:DISL:DISL:1,2011-09-04T22:30:00Z,30.2513,-88.0778,7.51,6.18,1111122 
DISL,ioos:station:DISL:DISL:1,2011-09-04T23:00:00Z,30.2513,-88.0778,7.53,6.13,1111122 
DISL,ioos:station:DISL:DISL:1,2011-09-04T23:30:00Z,30.2513,-88.0778,7.46,6.1,1111122 
DISL,ioos:station:DISL:DISL:1,2011-09-05T00:00:00Z,30.2513,-88.0778,7.42,6.09,1111122 
DISL,ioos:station:DISL:DISL:1,2011-09-05T00:30:00Z,30.2513,-88.0778,7.3,6.1,1111122 
DISL,ioos:station:DISL:DISL:1,2011-09-05T01:00:00Z,30.2513,-88.0778,7.42,6.08,1111122 
DISL,ioos:station:DISL:DISL:1,2011-09-05T01:30:00Z,30.2513,-88.0778,7.5,6.07,1111122 
DISL,ioos:station:DISL:DISL:1,2011-09-05T02:00:00Z,30.2513,-88.0778,7.74,5.95,1111122 
DISL,ioos:station:DISL:DISL:1,2011-09-05T02:30:00Z,30.2513,-88.0778,7.66,5.94,1111122 
DISL,ioos:station:DISL:DISL:1,2011-09-05T03:00:00Z,30.2513,-88.0778,7.83,5.93,1111122 
DISL,ioos:station:DISL:DISL:1,2011-09-05T03:30:00Z,30.2513,-88.0778,7.82,6.09,1111122 
DISL,ioos:station:DISL:DISL:1,2011-09-05T04:00:00Z,30.2513,-88.0778,7.92,6.11,1111122 
DISL,ioos:station:DISL:DISL:1,2011-09-05T04:30:00Z,30.2513,-88.0778,8.03,6.03,1111122 
DISL,ioos:station:DISL:DISL:1,2011-09-05T05:00:00Z,30.2513,-88.0778,8.1,6.06,1111122 
DISL,ioos:station:DISL:DISL:1,2011-09-05T05:30:00Z,30.2513,-88.0778,8.06,5.45,1111122 
DISL,ioos:station:DISL:DISL:1,2011-09-05T06:00:00Z,30.2513,-88.0778,8.1,5.25,1111122 
DISL,ioos:station:DISL:DISL:1,2011-09-05T06:30:00Z,30.2513,-88.0778,8.25,4.9,1111122 
DISL,ioos:station:DISL:DISL:1,2011-09-05T07:00:00Z,30.2513,-88.0778,8.24,5.49,1111122 
DISL,ioos:station:DISL:DISL:1,2011-09-05T07:30:00Z,30.2513,-88.0778,8.35,5.59,1111122 
DISL,ioos:station:DISL:DISL:1,2011-09-05T08:00:00Z,30.2513,-88.0778,8.41,5.65,1111122 
DISL,ioos:station:DISL:DISL:1,2011-09-05T08:30:00Z,30.2513,-88.0778,8.55,5.79,1111122 
DISL,ioos:station:DISL:DISL:1,2011-09-05T09:00:00Z,30.2513,-88.0778,8.38,5.52,1111122 
DISL,ioos:station:DISL:DISL:1,2011-09-05T09:30:00Z,30.2513,-88.0778,8.47,5.37,1111122 
DISL,ioos:station:DISL:DISL:1,2011-09-05T10:00:00Z,30.2513,-88.0778,8.32,5.49,1111122 
DISL,ioos:station:DISL:DISL:1,2011-09-05T10:30:00Z,30.2513,-88.0778,8.62,5.42,1111122 
DISL,ioos:station:DISL:DISL:1,2011-09-05T11:00:00Z,30.2513,-88.0778,8.44,5.79,1111122 
DISL,ioos:station:DISL:DISL:1,2011-09-05T11:30:00Z,30.2513,-88.0778,8.6,5.53,1111122 
DISL,ioos:station:DISL:DISL:1,2011-09-05T12:00:00Z,30.2513,-88.0778,8.54,5.7,1111122 
DISL,ioos:station:DISL:DISL:1,2011-09-05T12:30:00Z,30.2513,-88.0778,8.51,5.72,1111122 
DISL,ioos:station:DISL:DISL:1,2011-09-05T13:00:00Z,30.2513,-88.0778,8.65,5.73,1111122 
DISL,ioos:station:DISL:DISL:1,2011-09-05T13:30:00Z,30.2513,-88.0778,8.5,5.48,1111122 
DISL,ioos:station:DISL:DISL:1,2011-09-05T14:00:00Z,30.2513,-88.0778,8.19,5.4,1111122 
DISL,ioos:station:DISL:DISL:1,2011-09-05T14:30:00Z,30.2513,-88.0778,8.02,5.57,1111122 
DISL,ioos:station:DISL:DISL:1,2011-09-05T15:00:00Z,30.2513,-88.0778,8.1,5.38,1111122 
DISL,ioos:station:DISL:DISL:1,2011-09-05T15:30:00Z,30.2513,-88.0778,8.25,5.82,1111122 
DISL,ioos:station:DISL:DISL:1,2011-09-05T16:00:00Z,30.2513,-88.0778,7.84,6.12,1111122 
DISL,ioos:station:DISL:DISL:1,2011-09-05T16:30:00Z,30.2513,-88.0778,7.87,6.06,1111122 
DISL,ioos:station:DISL:DISL:1,2011-09-05T17:00:00Z,30.2513,-88.0778,7.92,5.61,1111122 
DISL,ioos:station:DISL:DISL:1,2011-09-05T17:30:00Z,30.2513,-88.0778,7.62,5.86,1111122 
DISL,ioos:station:DISL:DISL:1,2011-09-05T18:00:00Z,30.2513,-88.0778,7.83,5.9,1111122 
DISL,ioos:station:DISL:DISL:1,2011-09-05T18:30:00Z,30.2513,-88.0778,7.55,5.99,1111122 
DISL,ioos:station:DISL:DISL:1,2011-09-05T19:00:00Z,30.2513,-88.0778,7.72,5.96,1111122 
DISL,ioos:station:DISL:DISL:1,2011-09-05T19:30:00Z,30.2513,-88.0778,7.58,6.31,1111122 
DISL,ioos:station:DISL:DISL:1,2011-09-05T20:00:00Z,30.2513,-88.0778,7.63,6.35,1111122 
DISL,ioos:station:DISL:DISL:1,2011-09-05T20:30:00Z,30.2513,-88.0778,7.58,6.39,1111122 
DISL,ioos:station:DISL:DISL:1,2011-09-05T21:00:00Z,30.2513,-88.0778,7.38,6.33,1111122 
DISL,ioos:station:DISL:DISL:1,2011-09-05T21:30:00Z,30.2513,-88.0778,7.36,6.3,1111122 
DISL,ioos:station:DISL:DISL:1,2011-09-05T22:00:00Z,30.2513,-88.0778,6.802,6.33,1111122 
DISL,ioos:station:DISL:DISL:1,2011-09-05T22:30:00Z,30.2513,-88.0778,7.23,6.28,1111122 
DISL,ioos:station:DISL:DISL:1,2011-09-05T23:00:00Z,30.2513,-88.0778,7.24,6.25,1111122 
DISL,ioos:station:DISL:DISL:1,2011-09-05T23:30:00Z,30.2513,-88.0778,6.932,6.21,1111122 
DISL,ioos:station:DISL:DISL:1,2011-09-06T00:00:00Z,30.2513,-88.0778,6.862,6.18,1111122 
DISL,ioos:station:DISL:DISL:1,2011-09-06T00:30:00Z,30.2513,-88.0778,6.809,6.21,1111122 
DISL,ioos:station:DISL:DISL:1,2011-09-06T01:00:00Z,30.2513,-88.0778,6.529,6.16,1111122 
DISL,ioos:station:DISL:DISL:1,2011-09-06T01:30:00Z,30.2513,-88.0778,6.893,6.11,1111122 
DISL,ioos:station:DISL:DISL:1,2011-09-06T02:00:00Z,30.2513,-88.0778,6.636,6.09,1111122 
DISL,ioos:station:DISL:DISL:1,2011-09-06T02:30:00Z,30.2513,-88.0778,6.458,6.1,1111122 
DISL,ioos:station:DISL:DISL:1,2011-09-06T03:00:00Z,30.2513,-88.0778,6.738,6.04,1111122 
DISL,ioos:station:DISL:DISL:1,2011-09-06T03:30:00Z,30.2513,-88.0778,6.533,6.0,1111122 
DISL,ioos:station:DISL:DISL:1,2011-09-06T04:00:00Z,30.2513,-88.0778,6.605,6.07,1111122 
DISL,ioos:station:DISL:DISL:1,2011-09-06T04:30:00Z,30.2513,-88.0778,6.911,5.98,1111122 
DISL,ioos:station:DISL:DISL:1,2011-09-06T05:00:00Z,30.2513,-88.0778,6.866,6.03,1111122 
DISL,ioos:station:DISL:DISL:1,2011-09-06T05:30:00Z,30.2513,-88.0778,7.06,6.0,1111122 
DISL,ioos:station:DISL:DISL:1,2011-09-06T06:00:00Z,30.2513,-88.0778,6.75,6.07,1111122 
DISL,ioos:station:DISL:DISL:1,2011-09-06T06:30:00Z,30.2513,-88.0778,6.899,6.09,1111122 
DISL,ioos:station:DISL:DISL:1,2011-09-06T07:00:00Z,30.2513,-88.0778,7.09,6.04,1111122 
DISL,ioos:station:DISL:DISL:1,2011-09-06T07:30:00Z,30.2513,-88.0778,7.17,6.09,1111122 
DISL,ioos:station:DISL:DISL:1,2011-09-06T08:00:00Z,30.2513,-88.0778,7.28,6.11,1111122 
DISL,ioos:station:DISL:DISL:1,2011-09-06T08:30:00Z,30.2513,-88.0778,7.36,6.16,1111122 
DISL,ioos:station:DISL:DISL:1,2011-09-06T09:00:00Z,30.2513,-88.0778,7.45,6.16,1111122 
DISL,ioos:station:DISL:DISL:1,2011-09-06T09:30:00Z,30.2513,-88.0778,7.52,6.12,1111122 
DISL,ioos:station:DISL:DISL:1,2011-09-06T10:00:00Z,30.2513,-88.0778,7.59,6.11,1111122 
DISL,ioos:station:DISL:DISL:1,2011-09-06T10:30:00Z,30.2513,-88.0778,7.62,6.26,1111122 
DISL,ioos:station:DISL:DISL:1,2011-09-06T11:00:00Z,30.2513,-88.0778,7.75,6.25,1111122 
DISL,ioos:station:DISL:DISL:1,2011-09-06T11:30:00Z,30.2513,-88.0778,7.87,6.21,1111122 
DISL,ioos:station:DISL:DISL:1,2011-09-06T12:00:00Z,30.2513,-88.0778,7.88,6.19,1111122 
DISL,ioos:station:DISL:DISL:1,2011-09-06T12:30:00Z,30.2513,-88.0778,7.89,6.23,1111122 
DISL,ioos:station:DISL:DISL:1,2011-09-06T13:00:00Z,30.2513,-88.0778,7.97,6.26,1111122 
DISL,ioos:station:DISL:DISL:1,2011-09-06T13:30:00Z,30.2513,-88.0778,7.72,6.31,1111122 
DISL,ioos:station:DISL:DISL:1,2011-09-06T14:00:00Z,30.2513,-88.0778,7.77,6.35,1111122 
DISL,ioos:station:DISL:DISL:1,2011-09-06T14:30:00Z,30.2513,-88.0778,7.69,6.38,1111122 
DISL,ioos:station:DISL:DISL:1,2011-09-06T15:00:00Z,30.2513,-88.0778,7.65,6.43,1111122 
DISL,ioos:station:DISL:DISL:1,2011-09-06T15:30:00Z,30.2513,-88.0778,7.46,6.48,1111122 
DISL,ioos:station:DISL:DISL:1,2011-09-06T16:00:00Z,30.2513,-88.0778,7.35,6.54,1111122 
DISL,ioos:station:DISL:DISL:1,2011-09-06T16:30:00Z,30.2513,-88.0778,7.32,6.5,1111122 